Location: Asheville, NC
(35.6000°N, 82.5500°W)
Time: 21:19:21
(UTC-04:00)

CUBEBUG 2 - Pass Details

Date: 04 January 2018
Orbit: 586 x 699 km, 97.6° (Epoch: 19 June)

Event Time Altitude Azimuth Distance (km) Brightness Sun altitude
Rises 18:53:06 0° 160° (SSE) 2,797 ? -16.4°
Reaches altitude 10° 18:55:15 10° 158° (SSE) 1,905 ? -16.8°
Maximum altitude 18:59:20 66° 76° (ENE) 650 ? -17.6°
Drops below altitude 10° 19:03:31 10° 354° (N) 1,955 ? -18.4°
Sets 19:05:45 0° 352° (N) 2,878 ? -18.9°
